#timestamp,LO_Frequency,Hit,Temp,Hum 
1487851215.3,286046985.0,N,0.0,0.0
1487851235.2,286046983.6,N,0.0,0.0
1487851255.0,286046981.7,N,0.0,0.0
1487851255.9,286046981.7,N,0.0,0.0
1487851275.7,286046980.6,N,0.0,0.0
1487851295.6,286046981.5,N,0.0,0.0
1487851315.4,286046979.6,N,0.0,0.0
1487851335.2,286046979.9,N,0.0,0.0
1487851355.1,286046979.4,N,0.0,0.0
1487851356.0,286046979.4,N,0.0,0.0
1487851375.8,286046977.5,N,0.0,0.0
1487851395.6,286046978.0,N,0.0,0.0
1487851415.5,286046976.6,N,0.0,0.0
1487851435.3,286046976.7,N,0.0,0.0
1487851455.1,286046975.9,N,0.0,0.0
1487851475.9,286046978.8,N,0.0,0.0
1487851495.7,286046976.9,N,0.0,0.0
1487851515.5,286046977.2,N,0.0,0.0
1487851535.4,286046972.9,N,0.0,0.0
1487851555.2,286046973.7,N,0.0,0.0
1487851575.0,286046971.1,N,0.0,0.0
1487851575.9,286046971.1,N,0.0,0.0
1487851595.8,286046973.9,N,0.0,0.0
1487851615.6,286046971.0,N,0.0,0.0
1487851635.4,286046972.7,N,0.0,0.0
1487851655.3,286046973.8,N,0.0,0.0
1487851675.1,286046975.3,N,0.0,0.0
1487851676.0,286046975.3,N,0.0,0.0
1487851695.8,286046975.5,N,0.0,0.0
1487851715.7,286046974.7,N,0.0,0.0
1487851735.5,286046974.4,N,0.0,0.0
1487851755.3,286046975.3,N,0.0,0.0
1487851775.2,286046974.9,N,0.0,0.0
1487851795.9,286046975.3,N,0.0,0.0
1487851815.7,286046972.6,N,0.0,0.0
1487851835.5,286046972.7,N,0.0,0.0
1487851855.4,286046973.8,N,0.0,0.0
1487851875.2,286046973.7,N,0.0,0.0
1487851895.0,286046973.2,N,0.0,0.0
1487851895.9,286046973.2,N,0.0,0.0
1487851915.8,286046974.3,N,0.0,0.0
1487851935.6,286046973.4,N,0.0,0.0
1487851955.4,286046975.0,N,0.0,0.0
1487851975.3,286046972.7,N,0.0,0.0
1487851995.1,286046975.2,N,0.0,0.0
1487852015.8,286046972.5,N,0.0,0.0
1487852035.7,286046975.1,N,0.0,0.0
1487852055.5,286046972.6,N,0.0,0.0
1487852075.3,286046973.0,N,0.0,0.0
1487852095.2,286046977.2,N,0.0,0.0
1487852115.9,286046974.9,N,0.0,0.0
1487852135.7,286046975.1,N,0.0,0.0
1487852155.6,286046974.5,N,0.0,0.0
1487852175.4,286046978.7,N,0.0,0.0
1487852195.2,286046975.8,N,0.0,0.0
1487852215.1,286046975.9,N,0.0,0.0
1487852216.0,286046975.9,N,0.0,0.0
1487852235.8,286046977.6,N,0.0,0.0
1487852255.6,286046980.3,N,0.0,0.0
1487852275.5,286046980.4,N,0.0,0.0
1487852295.3,286046978.3,N,0.0,0.0
1487852315.1,286046976.0,N,0.0,0.0
1487852335.8,286046977.9,N,0.0,0.0
1487852355.7,286046976.1,N,0.0,0.0
1487852375.5,286046976.1,N,0.0,0.0
1487852395.3,286046977.7,N,0.0,0.0
1487852415.2,286046978.5,N,0.0,0.0
1487852435.0,286046978.1,N,0.0,0.0
1487852435.9,286046978.1,N,0.0,0.0
1487852455.7,286046977.7,N,0.0,0.0
1487852475.6,286046977.3,N,0.0,0.0
1487852495.4,286046978.5,N,0.0,0.0
1487852515.2,286046977.3,N,0.0,0.0
1487852535.1,286046980.2,N,0.0,0.0
1487852536.0,286046980.2,N,0.0,0.0
1487852555.8,286046977.8,N,0.0,0.0
1487852575.6,286046980.2,N,0.0,0.0
1487852595.5,286046980.0,N,0.0,0.0
1487852615.3,286046980.0,N,0.0,0.0
1487852635.1,286046979.7,N,0.0,0.0
1487852655.9,286046979.8,N,0.0,0.0
1487852675.7,286046977.6,Y,0.0,0.0
1487852695.2,286047005.5,N,0.0,0.0
1487852715.9,286047005.3,N,0.0,0.0
1487852735.7,286047005.1,N,0.0,0.0
1487852755.6,286047006.0,N,0.0,0.0
1487852775.4,286047005.3,N,0.0,0.0
1487852795.2,286047009.1,N,0.0,0.0
1487852815.0,286047006.4,N,0.0,0.0
1487852815.9,286047006.4,N,0.0,0.0
1487852835.8,286047009.0,N,0.0,0.0
1487852855.6,286047009.1,N,0.0,0.0
1487852875.4,286047008.7,N,0.0,0.0
1487852895.3,286047010.5,N,0.0,0.0
1487852915.1,286047010.6,N,0.0,0.0
1487852935.8,286047010.8,N,0.0,0.0
1487852955.7,286047010.2,N,0.0,0.0
1487852975.5,286047010.8,N,0.0,0.0
1487852995.3,286047009.9,N,0.0,0.0
1487853015.2,286047009.9,N,0.0,0.0
1487853035.9,286047009.4,N,0.0,0.0
1487853055.7,286047011.7,N,0.0,0.0
1487853075.6,286047011.2,N,0.0,0.0
1487853095.4,286047013.9,N,0.0,0.0
1487853115.2,286047012.7,N,0.0,0.0
1487853135.1,286047012.9,N,0.0,0.0
1487853136.0,286047012.9,N,0.0,0.0
1487853155.8,286047012.6,N,0.0,0.0
1487853175.6,286047015.5,N,0.0,0.0
1487853195.4,286047017.1,N,0.0,0.0
1487853215.2,286047014.5,N,0.0,0.0
1487853235.1,286047015.4,N,0.0,0.0
1487853236.0,286047015.4,N,0.0,0.0
1487853255.8,286047017.2,N,0.0,0.0
1487853275.6,286047017.2,N,0.0,0.0
1487853295.5,286047015.7,N,0.0,0.0
1487853315.3,286047014.1,N,0.0,0.0
1487853335.1,286047015.9,N,0.0,0.0
1487853355.9,286047014.4,N,0.0,0.0
1487853375.7,286047018.6,N,0.0,0.0
1487853395.5,286047020.1,N,0.0,0.0
1487853415.3,286047018.4,N,0.0,0.0
1487853435.2,286047019.1,N,0.0,0.0
1487853455.0,286047019.4,N,0.0,0.0
1487853455.9,286047019.4,N,0.0,0.0
1487853475.7,286047021.8,N,0.0,0.0
1487853495.6,286047021.2,N,0.0,0.0
1487853515.4,286047020.9,N,0.0,0.0
1487853535.2,286047023.2,N,0.0,0.0
1487853555.1,286047020.8,N,0.0,0.0
1487853556.0,286047020.8,N,0.0,0.0
1487853575.8,286047023.6,N,0.0,0.0
1487853595.6,286047021.2,N,0.0,0.0
1487853615.5,286047022.4,N,0.0,0.0
1487853635.3,286047022.7,N,0.0,0.0
1487853655.1,286047022.6,N,0.0,0.0
1487853675.9,286047025.1,N,0.0,0.0
1487853695.7,286047024.0,N,0.0,0.0
1487853715.5,286047022.1,N,0.0,0.0
1487853735.4,286047029.2,N,0.0,0.0
1487853755.2,286047023.7,N,0.0,0.0
1487853775.0,286047022.1,N,0.0,0.0
1487853775.9,286047022.1,N,0.0,0.0
1487853795.8,286047024.5,N,0.0,0.0
1487853815.0,286047028.6,N,0.0,0.0
1487853815.9,286047028.6,N,0.0,0.0
1487853835.8,286047031.6,N,0.0,0.0
1487853855.6,286047028.1,N,0.0,0.0
1487853875.4,286047028.0,N,0.0,0.0
1487853895.3,286047028.9,N,0.0,0.0
1487853915.1,286047030.6,N,0.0,0.0
1487853935.8,286047039.2,N,0.0,0.0
1487853955.7,286047031.8,N,0.0,0.0
1487853975.5,286047038.9,N,0.0,0.0
1487853995.3,286047036.0,N,0.0,0.0
1487854015.2,286047037.4,N,0.0,0.0
1487854035.9,286047037.5,N,0.0,0.0
1487854055.7,286047036.4,N,0.0,0.0
1487854075.6,286047029.2,N,0.0,0.0
1487854095.4,286047032.0,N,0.0,0.0
1487854115.2,286047036.3,N,0.0,0.0
1487854135.1,286047034.8,N,0.0,0.0
1487854136.0,286047034.8,N,0.0,0.0
1487854155.8,286047035.9,N,0.0,0.0
1487854175.6,286047034.2,N,0.0,0.0
1487854195.5,286047036.1,N,0.0,0.0
1487854215.3,286047036.2,N,0.0,0.0
1487854235.1,286047033.3,N,0.0,0.0
1487854255.8,286047035.0,N,0.0,0.0
1487854275.0,286047038.2,N,0.0,0.0
1487854275.9,286047038.2,N,0.0,0.0
1487854295.8,286047041.1,N,0.0,0.0
1487854315.6,286047036.7,N,0.0,0.0
1487854335.7,286047039.3,N,0.0,0.0
1487854355.5,286047036.5,N,0.0,0.0
1487854375.4,286047038.9,N,0.0,0.0
1487854395.2,286047042.8,N,0.0,0.0
1487854415.0,286047040.2,N,0.0,0.0
1487854415.9,286047040.2,N,0.0,0.0
1487854435.7,286047042.2,N,0.0,0.0
1487854455.6,286047039.7,N,0.0,0.0
1487854475.4,286047042.0,Y,0.0,0.0
1487854495.3,286047019.3,N,0.0,0.0
1487854515.1,286047023.6,N,0.0,0.0
1487854516.0,286047023.6,N,0.0,0.0
1487854535.8,286047023.2,N,0.0,0.0
1487854555.6,286047021.0,N,0.0,0.0
1487854575.5,286047018.9,N,0.0,0.0
1487854595.3,286047021.9,N,0.0,0.0
1487854615.1,286047020.8,N,0.0,0.0
1487854635.9,286047020.7,N,0.0,0.0
1487854655.7,286047020.9,N,0.0,0.0
1487854675.5,286047022.1,N,0.0,0.0
1487854695.4,286047024.6,N,0.0,0.0
1487854715.2,286047024.4,N,0.0,0.0
1487854735.0,286047025.0,N,0.0,0.0
1487854735.9,286047025.0,N,0.0,0.0
1487854755.8,286047023.3,N,0.0,0.0
1487854775.6,286047025.0,N,0.0,0.0
1487854795.4,286047023.8,N,0.0,0.0
